Time,TemperatureF,DewpointF,PressureIn,WindDirection,WindDirectionDegrees,WindSpeedMPH,WindSpeedGustMPH,Humidity,HourlyPrecipIn,Conditions,Clouds,dailyrainin,SoftwareType,DateUTC
2013-09-05 00:00:00,57.9,56.8,30.20,WSW,250,0.0,1.0,96,0.00,,---,0.04,VWS V13.01,2013-09-05 04:00:00,
2013-09-05 00:01:00,57.8,56.7,30.20,WSW,250,0.0,0.0,96,0.00,,---,0.00,VWS V13.01,2013-09-05 04:01:00,
2013-09-05 00:02:00,57.8,56.7,30.20,WSW,250,0.0,0.0,96,0.00,,---,0.00,VWS V13.01,2013-09-05 04:02:00,
2013-09-05 00:04:00,57.7,56.6,30.20,WSW,249,0.0,0.0,96,0.00,,---,0.00,VWS V13.01,2013-09-05 04:04:00,
2013-09-05 00:07:00,57.6,56.5,30.20,WSW,250,0.0,0.0,96,0.00,,---,0.00,VWS V13.01,2013-09-05 04:07:00,
2013-09-05 00:10:00,57.6,56.5,30.20,WSW,249,0.0,0.0,96,0.00,,---,0.00,VWS V13.01,2013-09-05 04:10:00,
2013-09-05 00:15:00,57.6,56.5,30.20,WSW,250,0.0,0.0,96,0.00,,---,0.00,VWS V13.01,2013-09-05 04:15:00,
2013-09-05 00:20:00,57.7,56.6,30.20,WSW,250,0.0,0.0,96,0.00,,---,0.00,VWS V13.01,2013-09-05 04:20:00,
2013-09-05 00:25:00,57.8,56.7,30.20,WSW,250,0.0,0.0,96,0.00,,---,0.00,VWS V13.01,2013-09-05 04:25:00,
2013-09-05 00:31:00,58.1,57.3,30.20,WSW,250,0.0,0.0,97,0.00,,---,0.00,VWS V13.01,2013-09-05 04:31:00,
2013-09-05 00:36:00,58.3,57.5,30.20,WSW,250,0.0,0.0,97,0.00,,---,0.00,VWS V13.01,2013-09-05 04:36:00,
2013-09-05 00:41:00,58.4,57.6,30.19,WSW,250,0.0,0.0,97,0.00,,---,0.00,VWS V13.01,2013-09-05 04:41:00,
2013-09-05 00:47:00,58.6,57.8,30.19,WSW,250,0.0,0.0,97,0.00,,---,0.00,VWS V13.01,2013-09-05 04:47:00,
2013-09-05 00:52:00,58.6,57.8,30.19,WSW,250,0.0,0.0,97,0.00,,---,0.00,VWS V13.01,2013-09-05 04:52:00,
2013-09-05 00:57:00,58.6,57.5,30.19,WSW,249,0.0,0.0,96,0.00,,---,0.00,VWS V13.01,2013-09-05 04:57:00,
2013-09-05 01:02:00,58.6,57.5,30.19,WSW,250,0.0,0.0,96,0.00,,---,0.00,VWS V13.01,2013-09-05 05:02:00,
2013-09-05 01:07:00,58.6,57.5,30.20,WSW,250,0.0,0.0,96,0.00,,---,0.00,VWS V13.01,2013-09-05 05:07:00,
2013-09-05 01:12:00,58.6,57.8,30.19,WSW,250,0.0,0.0,97,0.00,,---,0.00,VWS V13.01,2013-09-05 05:12:00,
2013-09-05 01:17:00,58.7,57.6,30.19,WSW,249,0.0,0.0,96,0.00,,---,0.00,VWS V13.01,2013-09-05 05:17:00,
2013-09-05 01:22:00,58.7,57.6,30.19,WSW,249,0.0,0.0,96,0.00,,---,0.00,VWS V13.01,2013-09-05 05:22:00,
2013-09-05 01:27:00,58.9,57.8,30.19,WSW,249,0.0,0.0,96,0.00,,---,0.00,VWS V13.01,2013-09-05 05:27:00,
2013-09-05 01:33:00,59.0,57.9,30.19,WSW,249,0.0,0.0,96,0.00,,---,0.00,VWS V13.01,2013-09-05 05:33:00,
2013-09-05 01:38:00,59.0,57.9,30.19,WSW,250,0.0,0.0,96,0.00,,---,0.00,VWS V13.01,2013-09-05 05:38:00,
2013-09-05 01:43:00,59.0,57.9,30.19,WSW,250,0.0,0.0,96,0.00,,---,0.00,VWS V13.01,2013-09-05 05:43:00,
2013-09-05 01:48:00,58.8,57.7,30.19,WSW,249,0.0,1.0,96,0.00,,---,0.00,VWS V13.01,2013-09-05 05:48:00,
2013-09-05 01:53:00,58.5,57.1,30.18,WSW,250,0.0,1.0,95,0.00,,---,0.00,VWS V13.01,2013-09-05 05:53:00,
2013-09-05 01:58:00,58.4,57.0,30.19,WSW,250,0.0,1.0,95,0.00,,---,0.00,VWS V13.01,2013-09-05 05:58:00,
2013-09-05 02:03:00,58.2,56.8,30.18,WSW,250,0.0,0.0,95,0.00,,---,0.00,VWS V13.01,2013-09-05 06:03:00,
2013-09-05 02:08:00,58.1,56.7,30.19,WSW,250,0.0,0.0,95,0.00,,---,0.00,VWS V13.01,2013-09-05 06:08:00,
2013-09-05 02:13:00,58.2,56.8,30.19,WSW,250,0.0,0.0,95,0.00,,---,0.00,VWS V13.01,2013-09-05 06:13:00,
2013-09-05 02:18:00,58.3,57.2,30.19,WSW,249,0.0,1.0,96,0.00,,---,0.00,VWS V13.01,2013-09-05 06:18:00,
2013-09-05 02:23:00,58.6,57.5,30.19,WSW,249,0.0,1.0,96,0.00,,---,0.00,VWS V13.01,2013-09-05 06:23:00,
2013-09-05 02:28:00,58.9,57.5,30.19,WSW,250,0.0,1.0,95,0.00,,---,0.00,VWS V13.01,2013-09-05 06:28:00,
2013-09-05 02:34:00,59.0,57.9,30.20,WSW,250,0.0,0.0,96,0.00,,---,0.00,VWS V13.01,2013-09-05 06:34:00,
2013-09-05 02:39:00,59.0,57.6,30.20,WSW,249,0.0,1.0,95,0.00,,---,0.00,VWS V13.01,2013-09-05 06:39:00,
2013-09-05 02:44:00,59.0,57.9,30.19,WSW,250,0.0,1.0,96,0.00,,---,0.00,VWS V13.01,2013-09-05 06:44:00,
2013-09-05 02:49:00,59.0,57.9,30.19,WSW,249,1.0,1.0,96,0.00,,---,0.00,VWS V13.01,2013-09-05 06:49:00,
2013-09-05 02:54:00,59.0,57.9,30.19,WSW,249,0.0,4.0,96,0.00,,---,0.00,VWS V13.01,2013-09-05 06:54:00,
2013-09-05 02:59:00,59.0,57.9,30.19,WSW,250,0.0,4.0,96,0.00,,---,0.00,VWS V13.01,2013-09-05 06:59:00,
2013-09-05 03:04:00,59.0,57.9,30.19,WSW,250,0.0,0.0,96,0.00,,---,0.00,VWS V13.01,2013-09-05 07:04:00,
2013-09-05 03:09:00,59.3,58.5,30.19,WSW,250,0.0,1.0,97,0.00,,---,0.00,VWS V13.01,2013-09-05 07:09:00,
2013-09-05 03:14:00,59.4,58.5,30.18,WSW,250,0.0,1.0,97,0.00,,---,0.00,VWS V13.01,2013-09-05 07:14:00,
2013-09-05 03:19:00,59.6,58.8,30.18,WSW,250,0.0,1.0,97,0.00,,---,0.00,VWS V13.01,2013-09-05 07:19:00,
2013-09-05 03:24:00,59.8,59.0,30.18,WSW,250,0.0,1.0,97,0.00,,---,0.00,VWS V13.01,2013-09-05 07:24:00,
2013-09-05 03:29:00,59.9,59.0,30.18,WSW,250,0.0,1.0,97,0.00,,---,0.00,VWS V13.01,2013-09-05 07:29:00,
2013-09-05 03:34:00,60.0,59.2,30.18,WSW,250,0.0,0.0,97,0.00,,---,0.00,VWS V13.01,2013-09-05 07:34:00,
2013-09-05 03:39:00,60.0,59.2,30.17,WSW,249,0.0,0.0,97,0.00,,---,0.00,VWS V13.01,2013-09-05 07:39:00,
2013-09-05 03:44:00,60.1,59.2,30.17,WSW,250,0.0,0.0,97,0.00,,---,0.00,VWS V13.01,2013-09-05 07:44:00,
2013-09-05 03:49:00,60.1,59.2,30.17,WSW,249,0.0,2.0,97,0.00,,---,0.00,VWS V13.01,2013-09-05 07:49:00,
2013-09-05 03:54:00,60.1,59.2,30.17,WSW,250,0.0,2.0,97,0.00,,---,0.00,VWS V13.01,2013-09-05 07:54:00,
2013-09-05 03:59:00,60.2,59.3,30.17,WSW,250,0.0,2.0,97,0.00,,---,0.00,VWS V13.01,2013-09-05 07:59:00,
2013-09-05 04:05:00,60.0,59.2,30.16,WSW,249,0.0,1.0,97,0.00,,---,0.00,VWS V13.01,2013-09-05 08:05:00,
2013-09-05 04:10:00,59.8,58.7,30.16,WSW,250,0.0,1.0,96,0.00,,---,0.00,VWS V13.01,2013-09-05 08:10:00,
2013-09-05 04:15:00,59.8,58.7,30.16,WSW,250,0.0,1.0,96,0.00,,---,0.00,VWS V13.01,2013-09-05 08:15:00,
2013-09-05 04:20:00,59.8,58.4,30.16,WSW,250,0.0,1.0,95,0.00,,---,0.00,VWS V13.01,2013-09-05 08:20:00,
2013-09-05 04:25:00,59.6,57.9,30.15,WSW,250,0.0,1.0,94,0.00,,---,0.00,VWS V13.01,2013-09-05 08:25:00,
2013-09-05 04:30:00,59.6,56.7,30.15,West,259,0.0,0.0,90,0.00,,---,0.00,VWS V13.01,2013-09-05 08:30:00,
2013-09-05 04:35:00,59.8,56.9,30.15,West,259,0.0,6.0,90,0.00,,---,0.00,VWS V13.01,2013-09-05 08:35:00,
2013-09-05 04:40:00,59.8,55.6,30.15,West,259,0.0,6.0,86,0.00,,---,0.00,VWS V13.01,2013-09-05 08:40:00,
2013-09-05 04:45:00,60.0,55.5,30.14,West,259,0.0,6.0,85,0.00,,---,0.00,VWS V13.01,2013-09-05 08:45:00,
2013-09-05 04:50:00,60.0,54.5,30.14,West,260,0.0,6.0,82,0.00,,---,0.00,VWS V13.01,2013-09-05 08:50:00,
2013-09-05 04:55:00,60.1,55.9,30.14,West,260,0.0,6.0,86,0.00,,---,0.00,VWS V13.01,2013-09-05 08:55:00,
2013-09-05 05:00:00,59.7,55.2,30.14,WSW,252,4.0,5.0,85,0.00,,---,0.00,VWS V13.01,2013-09-05 09:00:00,
2013-09-05 05:05:00,59.2,54.7,30.13,WSW,244,4.0,6.0,85,0.00,,---,0.00,VWS V13.01,2013-09-05 09:05:00,
2013-09-05 05:10:00,59.0,54.5,30.13,WSW,244,0.0,6.0,85,0.00,,---,0.00,VWS V13.01,2013-09-05 09:10:00,
2013-09-05 05:15:00,59.0,53.5,30.13,WSW,244,0.0,6.0,82,0.00,,---,0.00,VWS V13.01,2013-09-05 09:15:00,
2013-09-05 05:20:00,59.4,53.2,30.13,West,271,1.0,6.0,80,0.00,,---,0.00,VWS V13.01,2013-09-05 09:20:00,
2013-09-05 05:25:00,59.7,53.5,30.12,West,271,0.0,6.0,80,0.00,,---,0.00,VWS V13.01,2013-09-05 09:25:00,
2013-09-05 05:31:00,59.6,53.4,30.12,West,260,0.0,5.0,80,0.00,,---,0.00,VWS V13.01,2013-09-05 09:31:00,
2013-09-05 05:36:00,59.7,53.2,30.12,West,261,0.0,5.0,79,0.00,,---,0.00,VWS V13.01,2013-09-05 09:36:00,
2013-09-05 05:41:00,59.8,53.3,30.12,West,261,0.0,5.0,79,0.00,,---,0.00,VWS V13.01,2013-09-05 09:41:00,
2013-09-05 05:46:00,59.7,52.8,30.11,West,261,0.0,5.0,78,0.00,,---,0.00,VWS V13.01,2013-09-05 09:46:00,
2013-09-05 05:51:00,59.6,53.4,30.11,West,261,0.0,5.0,80,0.00,,---,0.00,VWS V13.01,2013-09-05 09:51:00,
2013-09-05 05:56:00,59.4,54.2,30.11,West,261,0.0,5.0,83,0.00,,---,0.00,VWS V13.01,2013-09-05 09:56:00,
2013-09-05 06:01:00,59.0,53.5,30.11,West,261,0.0,0.0,82,0.00,,---,0.00,VWS V13.01,2013-09-05 10:01:00,
2013-09-05 06:06:00,59.0,54.5,30.11,West,261,0.0,0.0,85,0.00,,---,0.00,VWS V13.01,2013-09-05 10:06:00,
2013-09-05 06:11:00,58.6,53.1,30.10,West,271,7.0,8.0,82,0.00,,---,0.00,VWS V13.01,2013-09-05 10:11:00,
2013-09-05 06:16:00,58.7,52.9,30.10,West,271,0.0,8.0,81,0.00,,---,0.00,VWS V13.01,2013-09-05 10:16:00,
2013-09-05 06:21:00,58.8,52.7,30.10,West,271,0.0,8.0,80,0.00,,---,0.00,VWS V13.01,2013-09-05 10:21:00,
2013-09-05 06:26:00,58.8,52.7,30.11,West,271,0.0,8.0,80,0.00,,---,0.00,VWS V13.01,2013-09-05 10:26:00,
2013-09-05 06:31:00,58.6,52.8,30.11,West,271,0.0,0.0,81,0.00,,---,0.00,VWS V13.01,2013-09-05 10:31:00,
2013-09-05 06:36:00,57.8,52.0,30.11,West,271,4.0,5.0,81,0.00,,---,0.00,VWS V13.01,2013-09-05 10:36:00,
2013-09-05 06:41:00,57.2,52.1,30.12,West,271,0.0,5.0,83,0.00,,---,0.00,VWS V13.01,2013-09-05 10:41:00,
2013-09-05 06:47:00,56.7,51.6,30.12,West,271,0.0,5.0,83,0.00,,---,0.00,VWS V13.01,2013-09-05 10:47:00,
2013-09-05 06:52:00,56.1,51.3,30.12,West,271,0.0,5.0,84,0.00,,---,0.00,VWS V13.01,2013-09-05 10:52:00,
2013-09-05 06:57:00,55.8,51.0,30.12,West,271,0.0,5.0,84,0.00,,---,0.00,VWS V13.01,2013-09-05 10:57:00,
2013-09-05 07:02:00,55.7,51.6,30.12,West,271,0.0,0.0,86,0.00,,---,0.00,VWS V13.01,2013-09-05 11:02:00,
2013-09-05 07:07:00,55.5,50.8,30.11,West,271,0.0,3.0,84,0.00,,---,0.00,VWS V13.01,2013-09-05 11:07:00,
2013-09-05 07:12:00,55.4,51.0,30.11,West,271,0.0,3.0,85,0.00,,---,0.00,VWS V13.01,2013-09-05 11:12:00,
2013-09-05 07:17:00,55.2,51.1,30.11,West,271,0.0,3.0,86,0.00,,---,0.00,VWS V13.01,2013-09-05 11:17:00,
2013-09-05 07:22:00,55.1,51.3,30.11,West,271,0.0,3.0,87,0.00,,---,0.00,VWS V13.01,2013-09-05 11:22:00,
2013-09-05 07:27:00,54.8,51.0,30.10,West,271,0.0,3.0,87,0.00,,---,0.00,VWS V13.01,2013-09-05 11:27:00,
2013-09-05 07:32:00,54.6,50.8,30.10,West,271,0.0,0.0,87,0.00,,---,0.00,VWS V13.01,2013-09-05 11:32:00,
2013-09-05 07:37:00,54.6,51.1,30.09,West,271,0.0,0.0,88,0.00,,---,0.00,VWS V13.01,2013-09-05 11:37:00,
2013-09-05 07:42:00,54.8,51.6,30.09,West,271,0.0,0.0,89,0.00,,---,0.00,VWS V13.01,2013-09-05 11:42:00,
2013-09-05 07:48:00,55.0,52.1,30.09,West,271,0.0,0.0,90,0.00,,---,0.00,VWS V13.01,2013-09-05 11:48:00,
2013-09-05 07:53:00,55.2,52.3,30.09,West,271,0.0,0.0,90,0.00,,---,0.00,VWS V13.01,2013-09-05 11:53:00,
2013-09-05 07:58:00,55.6,52.4,30.09,West,271,0.0,1.0,89,0.00,,---,0.00,VWS V13.01,2013-09-05 11:58:00,
2013-09-05 08:03:00,56.0,52.2,30.08,West,271,2.0,5.0,87,0.00,,---,0.00,VWS V13.01,2013-09-05 12:03:00,
2013-09-05 08:08:00,56.2,52.1,30.08,West,271,0.0,5.0,86,0.00,,---,0.00,VWS V13.01,2013-09-05 12:08:00,
2013-09-05 08:13:00,56.4,52.0,30.07,West,271,0.0,5.0,85,0.00,,---,0.00,VWS V13.01,2013-09-05 12:13:00,
2013-09-05 08:18:00,56.9,53.1,30.07,West,272,0.0,5.0,87,0.00,,---,0.00,VWS V13.01,2013-09-05 12:18:00,
2013-09-05 08:23:00,57.1,52.6,30.06,West,271,3.0,5.0,85,0.00,,---,0.00,VWS V13.01,2013-09-05 12:23:00,
2013-09-05 08:28:00,57.4,53.2,30.06,West,271,3.0,6.0,86,0.00,,---,0.00,VWS V13.01,2013-09-05 12:28:00,
2013-09-05 08:33:00,57.7,53.2,30.06,WNW,284,4.0,9.0,85,0.00,,---,0.00,VWS V13.01,2013-09-05 12:33:00,
2013-09-05 08:38:00,57.9,53.4,30.06,West,268,4.0,9.0,85,0.00,,---,0.00,VWS V13.01,2013-09-05 12:38:00,
2013-09-05 08:43:00,58.3,53.5,30.06,WNW,299,0.0,9.0,84,0.00,,---,0.00,VWS V13.01,2013-09-05 12:43:00,
2013-09-05 08:48:00,58.6,53.5,30.05,WSW,254,7.0,9.0,83,0.00,,---,0.00,VWS V13.01,2013-09-05 12:48:00,
2013-09-05 08:53:00,58.7,53.9,30.05,WNW,283,5.0,9.0,84,0.00,,---,0.00,VWS V13.01,2013-09-05 12:53:00,
2013-09-05 08:58:00,59.0,54.2,30.05,West,262,0.0,9.0,84,0.00,,---,0.00,VWS V13.01,2013-09-05 12:58:00,
2013-09-05 09:03:00,59.0,53.8,30.05,West,272,4.0,7.0,83,0.00,,---,0.00,VWS V13.01,2013-09-05 13:03:00,
2013-09-05 09:09:00,59.1,53.3,30.04,WNW,299,4.0,11.0,81,0.00,,---,0.00,VWS V13.01,2013-09-05 13:09:00,
2013-09-05 09:14:00,59.0,53.2,30.03,NW,307,0.0,11.0,81,0.00,,---,0.00,VWS V13.01,2013-09-05 13:14:00,
2013-09-05 09:19:00,59.5,53.3,30.03,WNW,290,0.0,11.0,80,0.00,,---,0.00,VWS V13.01,2013-09-05 13:19:00,
2013-09-05 09:24:00,60.0,53.1,30.03,WNW,300,0.0,11.0,78,0.00,,---,0.00,VWS V13.01,2013-09-05 13:24:00,
2013-09-05 09:29:00,60.4,52.8,30.03,WNW,302,2.0,11.0,76,0.00,,---,0.00,VWS V13.01,2013-09-05 13:29:00,
2013-09-05 09:34:00,60.7,52.7,30.03,NW,305,0.0,5.0,75,0.00,,---,0.00,VWS V13.01,2013-09-05 13:34:00,
2013-09-05 09:39:00,61.3,53.0,30.03,NW,306,3.0,7.0,74,0.00,,---,0.00,VWS V13.01,2013-09-05 13:39:00,
2013-09-05 09:44:00,61.6,52.1,30.03,North,350,5.0,11.0,71,0.00,,---,0.00,VWS V13.01,2013-09-05 13:44:00,
2013-09-05 09:49:00,62.1,53.0,30.02,WNW,302,5.0,11.0,72,0.00,,---,0.00,VWS V13.01,2013-09-05 13:49:00,
2013-09-05 09:54:00,62.0,52.9,30.02,WNW,291,0.0,11.0,72,0.00,,---,0.00,VWS V13.01,2013-09-05 13:54:00,
2013-09-05 09:59:00,62.3,53.5,30.02,NNW,340,0.0,11.0,73,0.00,,---,0.00,VWS V13.01,2013-09-05 13:59:00,
2013-09-05 10:04:00,62.5,53.0,30.01,North,355,0.0,9.0,71,0.00,,---,0.00,VWS V13.01,2013-09-05 14:04:00,
2013-09-05 10:09:00,62.7,52.8,30.01,NNW,327,0.0,18.0,70,0.00,,---,0.00,VWS V13.01,2013-09-05 14:09:00,
2013-09-05 10:14:00,62.6,52.3,30.00,NNE,27,0.0,18.0,69,0.00,,---,0.00,VWS V13.01,2013-09-05 14:14:00,
2013-09-05 10:19:00,62.8,52.1,30.00,ESE,118,0.0,18.0,68,0.00,,---,0.00,VWS V13.01,2013-09-05 14:19:00,
2013-09-05 10:24:00,63.5,53.5,30.00,NW,325,4.0,18.0,70,0.00,,---,0.00,VWS V13.01,2013-09-05 14:24:00,
2013-09-05 10:30:00,64.1,53.3,29.99,NE,34,0.0,18.0,68,0.00,,---,0.00,VWS V13.01,2013-09-05 14:30:00,
2013-09-05 10:35:00,64.4,52.4,29.99,NNW,331,6.0,11.0,65,0.00,,---,0.00,VWS V13.01,2013-09-05 14:35:00,
2013-09-05 10:40:00,63.7,51.7,29.98,West,277,6.0,11.0,65,0.00,,---,0.00,VWS V13.01,2013-09-05 14:40:00,
2013-09-05 10:45:00,63.6,51.6,29.98,WNW,286,6.0,12.0,65,0.00,,---,0.00,VWS V13.01,2013-09-05 14:45:00,
2013-09-05 10:50:00,63.8,50.5,29.97,NW,326,0.0,16.0,62,0.00,,---,0.00,VWS V13.01,2013-09-05 14:50:00,
2013-09-05 10:55:00,63.6,49.9,29.97,NW,315,1.0,16.0,61,0.00,,---,0.00,VWS V13.01,2013-09-05 14:55:00,
2013-09-05 11:00:00,63.6,48.6,29.97,West,277,11.0,12.0,58,0.00,,---,0.00,VWS V13.01,2013-09-05 15:00:00,
2013-09-05 11:05:00,63.7,49.1,29.97,WNW,299,6.0,12.0,59,0.00,,---,0.00,VWS V13.01,2013-09-05 15:05:00,
2013-09-05 11:10:00,64.0,49.4,29.97,NNE,25,0.0,12.0,59,0.00,,---,0.00,VWS V13.01,2013-09-05 15:10:00,
2013-09-05 11:15:00,64.6,48.6,29.96,West,279,6.0,12.0,56,0.00,,---,0.00,VWS V13.01,2013-09-05 15:15:00,
2013-09-05 11:20:00,64.5,49.9,29.97,NW,320,7.0,16.0,59,0.00,,---,0.00,VWS V13.01,2013-09-05 15:20:00,
2013-09-05 11:25:00,64.3,50.1,29.97,WNW,290,0.0,16.0,60,0.00,,---,0.00,VWS V13.01,2013-09-05 15:25:00,
2013-09-05 11:30:00,64.8,51.5,29.96,NNW,348,5.0,11.0,62,0.00,,---,0.00,VWS V13.01,2013-09-05 15:30:00,
2013-09-05 11:35:00,65.4,49.8,29.97,WNW,286,5.0,11.0,57,0.00,,---,0.00,VWS V13.01,2013-09-05 15:35:00,
2013-09-05 11:40:00,64.9,49.8,29.97,SSE,156,0.0,13.0,58,0.00,,---,0.00,VWS V13.01,2013-09-05 15:40:00,
2013-09-05 11:45:00,65.4,50.2,29.97,NNE,26,6.0,13.0,58,0.00,,---,0.00,VWS V13.01,2013-09-05 15:45:00,
2013-09-05 11:50:00,65.6,50.0,29.97,West,279,14.0,19.0,57,0.00,,---,0.00,VWS V13.01,2013-09-05 15:50:00,
2013-09-05 11:56:00,65.8,49.7,29.97,West,281,6.0,19.0,56,0.00,,---,0.00,VWS V13.01,2013-09-05 15:56:00,
2013-09-05 12:01:00,66.0,50.3,29.97,WNW,300,1.0,1.0,57,0.00,,---,0.00,VWS V13.01,2013-09-05 16:01:00,
2013-09-05 12:06:00,66.1,50.0,29.97,North,351,0.0,11.0,56,0.00,,---,0.00,VWS V13.01,2013-09-05 16:06:00,
2013-09-05 12:11:00,66.6,50.4,29.97,North,360,4.0,11.0,56,0.00,,---,0.00,VWS V13.01,2013-09-05 16:11:00,
2013-09-05 12:16:00,66.7,51.0,29.97,NW,311,11.0,13.0,57,0.00,,---,0.00,VWS V13.01,2013-09-05 16:16:00,
2013-09-05 12:21:00,66.1,50.9,29.97,NNW,340,2.0,13.0,58,0.00,,---,0.00,VWS V13.01,2013-09-05 16:21:00,
2013-09-05 12:26:00,66.1,50.4,29.97,NW,325,0.0,13.0,57,0.00,,---,0.00,VWS V13.01,2013-09-05 16:26:00,
2013-09-05 12:31:00,65.9,50.2,29.97,WNW,295,9.0,11.0,57,0.00,,---,0.00,VWS V13.01,2013-09-05 16:31:00,
2013-09-05 12:36:00,65.9,48.8,29.97,NNW,336,1.0,11.0,54,0.00,,---,0.00,VWS V13.01,2013-09-05 16:36:00,
2013-09-05 12:41:00,66.1,49.0,29.97,West,274,9.0,11.0,54,0.00,,---,0.00,VWS V13.01,2013-09-05 16:41:00,
2013-09-05 12:46:00,66.4,49.3,29.96,West,268,2.0,12.0,54,0.00,,---,0.00,VWS V13.01,2013-09-05 16:46:00,
2013-09-05 12:51:00,67.0,49.8,29.96,NNW,341,0.0,12.0,54,0.00,,---,0.00,VWS V13.01,2013-09-05 16:51:00,
2013-09-05 12:56:00,66.4,50.2,29.96,West,275,5.0,15.0,56,0.00,,---,0.00,VWS V13.01,2013-09-05 16:56:00,
2013-09-05 13:01:00,66.7,52.8,29.96,WSW,246,3.0,9.0,61,0.00,,---,0.00,VWS V13.01,2013-09-05 17:01:00,
2013-09-05 13:06:00,66.9,50.7,29.97,NW,323,10.0,12.0,56,0.00,,---,0.00,VWS V13.01,2013-09-05 17:06:00,
2013-09-05 13:11:00,66.8,49.6,29.96,WNW,295,5.0,12.0,54,0.00,,---,0.00,VWS V13.01,2013-09-05 17:11:00,
2013-09-05 13:16:00,67.0,50.3,29.96,WNW,284,5.0,13.0,55,0.00,,---,0.00,VWS V13.01,2013-09-05 17:16:00,
2013-09-05 13:22:00,67.2,51.9,29.96,WNW,282,5.0,13.0,58,0.00,,---,0.00,VWS V13.01,2013-09-05 17:22:00,
2013-09-05 13:27:00,66.9,50.2,29.96,WNW,300,7.0,13.0,55,0.00,,---,0.00,VWS V13.01,2013-09-05 17:27:00,
2013-09-05 13:32:00,66.5,48.9,29.96,West,265,0.0,9.0,53,0.00,,---,0.00,VWS V13.01,2013-09-05 17:32:00,
2013-09-05 13:37:00,67.0,49.8,29.96,NNW,348,0.0,9.0,54,0.00,,---,0.00,VWS V13.01,2013-09-05 17:37:00,
2013-09-05 13:42:00,66.3,49.7,29.96,West,281,7.0,14.0,55,0.00,,---,0.00,VWS V13.01,2013-09-05 17:42:00,
2013-09-05 13:47:00,66.8,50.6,29.96,West,269,9.0,20.0,56,0.00,,---,0.00,VWS V13.01,2013-09-05 17:47:00,
2013-09-05 13:52:00,67.4,48.1,29.95,West,280,5.0,20.0,50,0.00,,---,0.00,VWS V13.01,2013-09-05 17:52:00,
2013-09-05 13:57:00,67.5,50.8,29.96,WNW,297,4.0,20.0,55,0.00,,---,0.00,VWS V13.01,2013-09-05 17:57:00,
2013-09-05 14:02:00,68.0,49.7,29.95,WNW,295,0.0,8.0,52,0.00,,---,0.00,VWS V13.01,2013-09-05 18:02:00,
2013-09-05 14:07:00,67.9,50.2,29.95,NNW,338,5.0,8.0,53,0.00,,---,0.00,VWS V13.01,2013-09-05 18:07:00,
2013-09-05 14:12:00,67.7,48.9,29.96,NW,310,4.0,10.0,51,0.00,,---,0.00,VWS V13.01,2013-09-05 18:12:00,
2013-09-05 14:17:00,67.6,47.8,29.95,WNW,296,1.0,12.0,49,0.00,,---,0.00,VWS V13.01,2013-09-05 18:17:00,
2013-09-05 14:22:00,67.6,50.4,29.95,NW,316,5.0,12.0,54,0.00,,---,0.00,VWS V13.01,2013-09-05 18:22:00,
2013-09-05 14:27:00,68.0,49.7,29.95,NNE,33,2.0,12.0,52,0.00,,---,0.00,VWS V13.01,2013-09-05 18:27:00,
2013-09-05 14:32:00,68.4,49.1,29.95,North,360,0.0,7.0,50,0.00,,---,0.00,VWS V13.01,2013-09-05 18:32:00,
2013-09-05 14:37:00,68.5,49.7,29.95,NW,304,0.0,12.0,51,0.00,,---,0.00,VWS V13.01,2013-09-05 18:37:00,
2013-09-05 14:43:00,68.0,47.6,29.95,North,5,0.0,12.0,48,0.00,,---,0.00,VWS V13.01,2013-09-05 18:43:00,
2013-09-05 14:48:00,68.1,49.3,29.95,WNW,290,5.0,12.0,51,0.00,,---,0.00,VWS V13.01,2013-09-05 18:48:00,
2013-09-05 14:53:00,68.1,48.8,29.95,NW,306,6.0,12.0,50,0.00,,---,0.00,VWS V13.01,2013-09-05 18:53:00,
2013-09-05 14:58:00,68.3,49.0,29.95,North,355,0.0,12.0,50,0.00,,---,0.00,VWS V13.01,2013-09-05 18:58:00,
2013-09-05 15:03:00,68.2,48.3,29.95,WNW,287,0.0,12.0,49,0.00,,---,0.00,VWS V13.01,2013-09-05 19:03:00,
2013-09-05 15:08:00,68.1,48.8,29.96,NW,312,0.0,12.0,50,0.00,,---,0.00,VWS V13.01,2013-09-05 19:08:00,
2013-09-05 15:13:00,67.4,49.7,29.96,WNW,298,0.0,12.0,53,0.00,,---,0.00,VWS V13.01,2013-09-05 19:13:00,
2013-09-05 15:18:00,67.8,49.5,29.96,NW,304,7.0,12.0,52,0.00,,---,0.00,VWS V13.01,2013-09-05 19:18:00,
2013-09-05 15:23:00,68.1,50.3,29.96,NW,319,7.0,12.0,53,0.00,,---,0.00,VWS V13.01,2013-09-05 19:23:00,
2013-09-05 15:28:00,68.1,49.8,29.96,North,5,6.0,12.0,52,0.00,,---,0.00,VWS V13.01,2013-09-05 19:28:00,
2013-09-05 15:33:00,67.9,47.5,29.96,NNW,340,8.0,10.0,48,0.00,,---,0.00,VWS V13.01,2013-09-05 19:33:00,
2013-09-05 15:38:00,67.2,47.4,29.96,NW,316,4.0,10.0,49,0.00,,---,0.00,VWS V13.01,2013-09-05 19:38:00,
2013-09-05 15:43:00,66.5,47.8,29.96,WNW,292,0.0,13.0,51,0.00,,---,0.00,VWS V13.01,2013-09-05 19:43:00,
2013-09-05 15:49:00,66.0,47.4,29.96,NNW,344,1.0,13.0,51,0.00,,---,0.00,VWS V13.01,2013-09-05 19:49:00,
2013-09-05 15:54:00,66.6,48.4,29.96,NNW,342,7.0,13.0,52,0.00,,---,0.00,VWS V13.01,2013-09-05 19:54:00,
2013-09-05 15:59:00,67.2,46.9,29.96,West,268,5.0,13.0,48,0.00,,---,0.00,VWS V13.01,2013-09-05 19:59:00,
2013-09-05 16:04:00,67.3,47.5,29.96,West,274,10.0,13.0,49,0.00,,---,0.00,VWS V13.01,2013-09-05 20:04:00,
2013-09-05 16:09:00,67.3,49.1,29.97,NW,313,7.0,13.0,52,0.00,,---,0.00,VWS V13.01,2013-09-05 20:09:00,
2013-09-05 16:14:00,67.7,50.0,29.97,NNW,339,6.0,13.0,53,0.00,,---,0.00,VWS V13.01,2013-09-05 20:14:00,
2013-09-05 16:19:00,67.9,49.1,29.96,WNW,286,8.0,13.0,51,0.00,,---,0.00,VWS V13.01,2013-09-05 20:19:00,
2013-09-05 16:24:00,67.5,49.3,29.96,WNW,292,5.0,13.0,52,0.00,,---,0.00,VWS V13.01,2013-09-05 20:24:00,
2013-09-05 16:29:00,67.3,49.6,29.97,North,355,7.0,13.0,53,0.00,,---,0.00,VWS V13.01,2013-09-05 20:29:00,
2013-09-05 16:34:00,67.1,48.9,29.97,NE,54,4.0,10.0,52,0.00,,---,0.00,VWS V13.01,2013-09-05 20:34:00,
2013-09-05 16:39:00,66.9,48.2,29.97,NW,319,4.0,10.0,51,0.00,,---,0.00,VWS V13.01,2013-09-05 20:39:00,
2013-09-05 16:45:00,67.2,49.0,29.97,NNW,329,2.0,10.0,52,0.00,,---,0.00,VWS V13.01,2013-09-05 20:45:00,
2013-09-05 16:50:00,67.2,49.0,29.98,NW,319,3.0,10.0,52,0.00,,---,0.00,VWS V13.01,2013-09-05 20:50:00,
2013-09-05 16:55:00,67.0,50.3,29.97,West,279,6.0,10.0,55,0.00,,---,0.00,VWS V13.01,2013-09-05 20:55:00,
2013-09-05 17:00:00,66.7,49.0,29.97,West,275,6.0,6.0,53,0.00,,---,0.00,VWS V13.01,2013-09-05 21:00:00,
2013-09-05 17:05:00,66.5,50.8,29.98,WNW,303,4.0,11.0,57,0.00,,---,0.00,VWS V13.01,2013-09-05 21:05:00,
2013-09-05 17:10:00,66.5,49.4,29.98,North,350,4.0,11.0,54,0.00,,---,0.00,VWS V13.01,2013-09-05 21:10:00,
2013-09-05 17:15:00,66.1,48.5,29.98,North,360,0.0,11.0,53,0.00,,---,0.00,VWS V13.01,2013-09-05 21:15:00,
2013-09-05 17:20:00,65.7,48.6,29.98,NW,323,5.0,11.0,54,0.00,,---,0.00,VWS V13.01,2013-09-05 21:20:00,
2013-09-05 17:25:00,65.5,47.9,29.98,North,11,0.0,11.0,53,0.00,,---,0.00,VWS V13.01,2013-09-05 21:25:00,
2013-09-05 17:30:00,65.9,48.3,29.98,North,355,5.0,7.0,53,0.00,,---,0.00,VWS V13.01,2013-09-05 21:30:00,
2013-09-05 17:35:00,65.8,47.7,29.99,NW,322,6.0,9.0,52,0.00,,---,0.00,VWS V13.01,2013-09-05 21:35:00,
2013-09-05 17:41:00,65.5,47.4,29.99,North,10,0.0,9.0,52,0.00,,---,0.00,VWS V13.01,2013-09-05 21:41:00,
2013-09-05 17:46:00,65.6,48.5,29.99,North,349,1.0,9.0,54,0.00,,---,0.00,VWS V13.01,2013-09-05 21:46:00,
2013-09-05 17:51:00,65.5,48.9,30.00,North,360,0.0,9.0,55,0.00,,---,0.00,VWS V13.01,2013-09-05 21:51:00,
2013-09-05 17:56:00,64.9,48.4,30.00,North,360,6.0,10.0,55,0.00,,---,0.00,VWS V13.01,2013-09-05 21:56:00,
2013-09-05 18:01:00,64.2,46.7,30.00,NE,38,0.0,3.0,53,0.00,,---,0.00,VWS V13.01,2013-09-05 22:01:00,
2013-09-05 18:06:00,64.0,46.5,30.00,NNE,30,0.0,8.0,53,0.00,,---,0.00,VWS V13.01,2013-09-05 22:06:00,
2013-09-05 18:11:00,64.0,47.0,30.00,NNW,336,2.0,8.0,54,0.00,,---,0.00,VWS V13.01,2013-09-05 22:11:00,
2013-09-05 18:17:00,64.1,46.1,30.01,NW,325,4.0,8.0,52,0.00,,---,0.00,VWS V13.01,2013-09-05 22:17:00,
2013-09-05 18:22:00,64.1,46.6,30.01,NNW,329,5.0,8.0,53,0.00,,---,0.00,VWS V13.01,2013-09-05 22:22:00,
2013-09-05 18:27:00,63.9,46.5,30.01,NNW,346,0.0,8.0,53,0.00,,---,0.00,VWS V13.01,2013-09-05 22:27:00,
2013-09-05 18:32:00,63.5,47.1,30.01,NW,310,0.0,5.0,55,0.00,,---,0.00,VWS V13.01,2013-09-05 22:32:00,
2013-09-05 18:37:00,63.3,47.8,30.01,NW,311,0.0,5.0,57,0.00,,---,0.00,VWS V13.01,2013-09-05 22:37:00,
2013-09-05 18:42:00,63.0,47.5,30.01,NE,41,0.0,6.0,57,0.00,,---,0.00,VWS V13.01,2013-09-05 22:42:00,
2013-09-05 18:47:00,62.9,47.9,30.01,NNE,33,0.0,6.0,58,0.00,,---,0.00,VWS V13.01,2013-09-05 22:47:00,
2013-09-05 18:52:00,62.9,47.9,30.01,NNW,344,0.0,6.0,58,0.00,,---,0.00,VWS V13.01,2013-09-05 22:52:00,
2013-09-05 18:58:00,62.6,47.2,30.01,NNW,344,0.0,6.0,57,0.00,,---,0.00,VWS V13.01,2013-09-05 22:58:00,
2013-09-05 19:03:00,62.4,47.9,30.01,NNW,344,0.0,1.0,59,0.00,,---,0.00,VWS V13.01,2013-09-05 23:03:00,
2013-09-05 19:08:00,62.2,47.7,30.01,NNW,344,0.0,1.0,59,0.00,,---,0.00,VWS V13.01,2013-09-05 23:08:00,
2013-09-05 19:13:00,62.3,48.7,30.01,NNW,344,0.0,1.0,61,0.00,,---,0.00,VWS V13.01,2013-09-05 23:13:00,
2013-09-05 19:18:00,62.4,51.3,30.01,NNW,344,0.0,1.0,67,0.00,,---,0.00,VWS V13.01,2013-09-05 23:18:00,
2013-09-05 19:23:00,62.3,50.0,30.01,NNW,344,0.0,1.0,64,0.00,,---,0.00,VWS V13.01,2013-09-05 23:23:00,
2013-09-05 19:28:00,61.8,50.3,30.01,NNW,344,0.0,1.0,66,0.00,,---,0.00,VWS V13.01,2013-09-05 23:28:00,
2013-09-05 19:33:00,60.4,49.4,30.01,NNW,344,0.0,0.0,67,0.00,,---,0.00,VWS V13.01,2013-09-05 23:33:00,
2013-09-05 19:39:00,59.0,48.9,30.02,NNW,344,0.0,0.0,69,0.00,,---,0.00,VWS V13.01,2013-09-05 23:39:00,
2013-09-05 19:44:00,57.2,49.0,30.01,NNW,344,0.0,0.0,74,0.00,,---,0.00,VWS V13.01,2013-09-05 23:44:00,
2013-09-05 19:49:00,56.5,49.0,30.02,NNW,344,0.0,0.0,76,0.00,,---,0.00,VWS V13.01,2013-09-05 23:49:00,
2013-09-05 19:54:00,55.9,49.2,30.02,NNW,344,0.0,0.0,78,0.00,,---,0.00,VWS V13.01,2013-09-05 23:54:00,
2013-09-05 19:59:00,55.5,49.8,30.02,NNW,344,0.0,0.0,81,0.00,,---,0.00,VWS V13.01,2013-09-05 23:59:00,
2013-09-05 20:04:00,54.5,49.5,30.02,NNW,344,0.0,0.0,83,0.00,,---,0.00,VWS V13.01,2013-09-06 00:04:00,
2013-09-05 20:09:00,53.2,48.2,30.02,NNW,344,0.0,0.0,83,0.00,,---,0.00,VWS V13.01,2013-09-06 00:09:00,
2013-09-05 20:14:00,52.5,48.1,30.03,NNW,344,0.0,0.0,85,0.00,,---,0.00,VWS V13.01,2013-09-06 00:14:00,
2013-09-05 20:20:00,51.8,47.4,30.03,NNW,344,0.0,0.0,85,0.00,,---,0.00,VWS V13.01,2013-09-06 00:20:00,
2013-09-05 20:25:00,51.4,47.4,30.03,NNW,344,0.0,0.0,86,0.00,,---,0.00,VWS V13.01,2013-09-06 00:25:00,
2013-09-05 20:30:00,50.8,46.8,30.03,NNW,344,0.0,0.0,86,0.00,,---,0.00,VWS V13.01,2013-09-06 00:30:00,
2013-09-05 20:35:00,50.4,46.7,30.03,NNW,344,0.0,0.0,87,0.00,,---,0.00,VWS V13.01,2013-09-06 00:35:00,
2013-09-05 20:40:00,50.1,46.7,30.04,NNW,344,0.0,0.0,88,0.00,,---,0.00,VWS V13.01,2013-09-06 00:40:00,
2013-09-05 20:45:00,49.8,46.7,30.04,NNW,344,0.0,0.0,89,0.00,,---,0.00,VWS V13.01,2013-09-06 00:45:00,
2013-09-05 20:50:00,49.6,46.5,30.04,NNW,344,0.0,0.0,89,0.00,,---,0.00,VWS V13.01,2013-09-06 00:50:00,
2013-09-05 20:55:00,49.3,46.2,30.04,NNW,344,0.0,0.0,89,0.00,,---,0.00,VWS V13.01,2013-09-06 00:55:00,
2013-09-05 21:01:00,48.4,45.3,30.04,NNW,344,0.0,0.0,89,0.00,,---,0.00,VWS V13.01,2013-09-06 01:01:00,
2013-09-05 21:06:00,47.9,45.1,30.04,NNW,344,0.0,0.0,90,0.00,,---,0.00,VWS V13.01,2013-09-06 01:06:00,
2013-09-05 21:11:00,47.7,45.2,30.04,NNW,344,0.0,0.0,91,0.00,,---,0.00,VWS V13.01,2013-09-06 01:11:00,
2013-09-05 21:16:00,47.6,45.4,30.05,NNW,344,0.0,0.0,92,0.00,,---,0.00,VWS V13.01,2013-09-06 01:16:00,
2013-09-05 21:21:00,47.5,45.3,30.05,NNW,344,0.0,0.0,92,0.00,,---,0.00,VWS V13.01,2013-09-06 01:21:00,
2013-09-05 21:26:00,47.5,45.3,30.06,NNW,344,0.0,0.0,92,0.00,,---,0.00,VWS V13.01,2013-09-06 01:26:00,
2013-09-05 21:31:00,47.4,45.5,30.06,NNW,344,0.0,0.0,93,0.00,,---,0.00,VWS V13.01,2013-09-06 01:31:00,
2013-09-05 21:37:00,47.4,45.5,30.06,NNW,344,0.0,0.0,93,0.00,,---,0.00,VWS V13.01,2013-09-06 01:37:00,
2013-09-05 21:42:00,47.2,45.3,30.06,NNW,344,0.0,0.0,93,0.00,,---,0.00,VWS V13.01,2013-09-06 01:42:00,
2013-09-05 21:47:00,47.1,45.2,30.06,NNW,344,0.0,0.0,93,0.00,,---,0.00,VWS V13.01,2013-09-06 01:47:00,
2013-09-05 21:52:00,46.5,44.6,30.06,NNW,344,0.0,0.0,93,0.00,,---,0.00,VWS V13.01,2013-09-06 01:52:00,
2013-09-05 21:57:00,46.4,44.5,30.06,NNW,344,0.0,0.0,93,0.00,,---,0.00,VWS V13.01,2013-09-06 01:57:00,
2013-09-05 22:02:00,46.4,44.8,30.06,NNW,344,0.0,0.0,94,0.00,,---,0.00,VWS V13.01,2013-09-06 02:02:00,
2013-09-05 22:08:00,46.3,44.7,30.06,NNW,344,0.0,0.0,94,0.00,,---,0.00,VWS V13.01,2013-09-06 02:08:00,
2013-09-05 22:13:00,46.2,44.6,30.07,NNW,344,0.0,0.0,94,0.00,,---,0.00,VWS V13.01,2013-09-06 02:13:00,
2013-09-05 22:18:00,46.0,44.4,30.07,NNW,344,0.0,0.0,94,0.00,,---,0.00,VWS V13.01,2013-09-06 02:18:00,
2013-09-05 22:23:00,45.9,44.3,30.07,NNW,344,0.0,0.0,94,0.00,,---,0.00,VWS V13.01,2013-09-06 02:23:00,
2013-09-05 22:28:00,45.8,44.2,30.07,NNW,344,0.0,0.0,94,0.00,,---,0.00,VWS V13.01,2013-09-06 02:28:00,
2013-09-05 22:33:00,45.7,44.1,30.08,NNW,344,0.0,0.0,94,0.00,,---,0.00,VWS V13.01,2013-09-06 02:33:00,
2013-09-05 22:39:00,45.5,43.9,30.08,NNW,344,0.0,0.0,94,0.00,,---,0.00,VWS V13.01,2013-09-06 02:39:00,
2013-09-05 22:44:00,45.2,43.6,30.08,NNW,344,0.0,0.0,94,0.00,,---,0.00,VWS V13.01,2013-09-06 02:44:00,
2013-09-05 22:49:00,45.0,43.4,30.08,NNW,344,0.0,0.0,94,0.00,,---,0.00,VWS V13.01,2013-09-06 02:49:00,
2013-09-05 22:54:00,44.8,43.2,30.08,NNW,344,0.0,0.0,94,0.00,,---,0.00,VWS V13.01,2013-09-06 02:54:00,
2013-09-05 22:59:00,45.0,43.7,30.08,NNW,344,0.0,0.0,95,0.00,,---,0.00,VWS V13.01,2013-09-06 02:59:00,
2013-09-05 23:04:00,45.0,43.7,30.08,NNW,344,0.0,0.0,95,0.00,,---,0.00,VWS V13.01,2013-09-06 03:04:00,
2013-09-05 23:10:00,44.8,43.5,30.08,NNW,344,0.0,0.0,95,0.00,,---,0.00,VWS V13.01,2013-09-06 03:10:00,
2013-09-05 23:15:00,44.6,43.3,30.08,NNW,344,0.0,0.0,95,0.00,,---,0.00,VWS V13.01,2013-09-06 03:15:00,
2013-09-05 23:20:00,44.6,43.3,30.08,NNW,344,0.0,0.0,95,0.00,,---,0.00,VWS V13.01,2013-09-06 03:20:00,
2013-09-05 23:25:00,44.3,43.0,30.09,NNW,344,0.0,0.0,95,0.00,,---,0.00,VWS V13.01,2013-09-06 03:25:00,
2013-09-05 23:30:00,44.2,42.9,30.08,NNW,344,0.0,0.0,95,0.00,,---,0.00,VWS V13.01,2013-09-06 03:30:00,
2013-09-05 23:35:00,44.1,42.8,30.09,NNW,344,0.0,0.0,95,0.00,,---,0.00,VWS V13.01,2013-09-06 03:35:00,
2013-09-05 23:41:00,44.0,42.7,30.09,NNW,344,0.0,0.0,95,0.00,,---,0.00,VWS V13.01,2013-09-06 03:41:00,
2013-09-05 23:46:00,43.8,42.5,30.09,NNW,344,0.0,0.0,95,0.00,,---,0.00,VWS V13.01,2013-09-06 03:46:00,
2013-09-05 23:51:00,43.8,42.7,30.09,NNW,344,0.0,0.0,96,0.00,,---,0.00,VWS V13.01,2013-09-06 03:51:00,
2013-09-05 23:56:00,43.8,42.7,30.10,NNW,344,0.0,0.0,96,0.00,,---,0.00,VWS V13.01,2013-09-06 03:56:00,